Location: The Saddle
(36.8333°N, 80.3417°W)
Time: 07:38:13
(UTC-04:00)

Vanguard 2 Rocket - Pass Details

Date: 05 February 2023
Orbit: 555 x 3316 km, 32.9° (Epoch: 27 March)

Event Time Altitude Azimuth Distance (km) Brightness Sun altitude
Rises 07:31:19 0° 212° (SSW) 5,250 10.7 1.2°
Reaches altitude 10° 07:36:42 10° 196° (SSW) 3,658 10.1 2.3°
Maximum altitude 07:42:03 17° 159° (SSE) 2,527 9.9 3.2°
Drops below altitude 10° 07:46:03 10° 119° (ESE) 2,608 11.9 4.0°
Sets 07:49:00 0° 98° (E) 3,248 11.6 4.5°
